AAL421 KDCA-KATL

Flight info

Callsign AAL421
Flight time 1h 25m
Altitude 34000
Route CLTCH3 FLASK OZZZI2
Aircraft B738/M-VGDW/C

Departure

Time 2026-05-06 20:47
Airport Ronald Reagan Washington National Airport (KDCA)

Arrival

Time 2026-05-06 22:13
Airport Hartsfield Jackson Atlanta International Airport (KATL)
Time Latitude Longitude Altitude Speed Heading
2026-05-06 20:35 38.85430 -77.04279 30 ft 0 kts 160°
2026-05-06 20:37 38.85433 -77.04281 30 ft 1 kts 167°
2026-05-06 20:38 38.85448 -77.04281 30 ft 2 kts 179°
2026-05-06 20:38 38.85463 -77.04282 30 ft 2 kts 174°
2026-05-06 20:38 38.85477 -77.04284 30 ft 2 kts 176°
2026-05-06 20:38 38.85493 -77.04285 30 ft 2 kts 175°
2026-05-06 20:39 38.85499 -77.04285 30 ft 0 kts 160°
2026-05-06 20:39 38.85503 -77.04288 30 ft 1 kts 110°
2026-05-06 20:39 38.85505 -77.04295 30 ft 0 kts 116°
2026-05-06 20:43 38.85502 -77.04282 30 ft 6 kts 107°
2026-05-06 20:43 38.85507 -77.04215 28 ft 8 kts 76°
2026-05-06 20:43 38.85525 -77.04138 27 ft 9 kts 73°
2026-05-06 20:43 38.85566 -77.04052 24 ft 13 kts 30°
2026-05-06 20:44 38.85669 -77.04044 22 ft 15 kts 358°
2026-05-06 20:44 38.85773 -77.04053 21 ft 14 kts 356°
2026-05-06 20:44 38.85867 -77.04062 21 ft 13 kts 355°
2026-05-06 20:44 38.85932 -77.04009 19 ft 11 kts 57°
2026-05-06 20:45 38.85986 -77.03960 18 ft 0 kts 19°
2026-05-06 20:46 38.86030 -77.03944 18 ft 9 kts 17°
2026-05-06 20:46 38.86049 -77.03882 17 ft 14 kts 147°
2026-05-06 20:46 38.85886 -77.03852 19 ft 47 kts 177°
2026-05-06 20:46 38.85309 -77.03793 21 ft 117 kts 175°
2026-05-06 20:47 38.84331 -77.03694 125 ft 160 kts 178°
2026-05-06 20:47 38.83083 -77.03490 296 ft 204 kts 173°
2026-05-06 20:47 38.81580 -77.03094 741 ft 235 kts 169°
2026-05-06 20:47 38.79980 -77.02567 1633 ft 245 kts 169°
2026-05-06 20:48 38.78337 -77.01980 2464 ft 250 kts 169°
2026-05-06 20:48 38.76632 -77.01337 3149 ft 260 kts 169°
2026-05-06 20:48 38.74873 -77.00661 3881 ft 267 kts 169°
2026-05-06 20:48 38.73071 -77.00077 4592 ft 268 kts 182°
2026-05-06 20:49 38.71323 -77.00432 5305 ft 257 kts 213°
2026-05-06 20:49 38.70096 -77.01965 6155 ft 244 kts 248°
2026-05-06 20:49 38.69844 -77.04045 6898 ft 244 kts 278°
2026-05-06 20:49 38.70380 -77.06102 7672 ft 248 kts 290°
2026-05-06 20:50 38.71096 -77.08113 8322 ft 253 kts 290°
2026-05-06 20:50 38.71775 -77.10171 9107 ft 252 kts 288°
2026-05-06 20:50 38.72415 -77.12275 9693 ft 258 kts 286°
2026-05-06 20:50 38.73020 -77.14420 10355 ft 260 kts 285°
2026-05-06 20:51 38.73604 -77.16666 10652 ft 276 kts 284°
2026-05-06 20:51 38.74155 -77.19076 11088 ft 286 kts 282°
2026-05-06 20:51 38.74644 -77.21600 11328 ft 301 kts 280°
2026-05-06 20:51 38.75008 -77.24257 11836 ft 307 kts 276°
2026-05-06 20:52 38.75223 -77.27019 12100 ft 319 kts 272°
2026-05-06 20:52 38.75264 -77.29852 12744 ft 319 kts 269°
2026-05-06 20:52 38.75197 -77.32684 13441 ft 318 kts 268°
2026-05-06 20:52 38.75097 -77.35484 14046 ft 319 kts 266°
2026-05-06 20:53 38.74947 -77.38319 14639 ft 320 kts 266°
2026-05-06 20:53 38.74736 -77.41169 15053 ft 327 kts 264°
2026-05-06 20:53 38.74451 -77.44077 15664 ft 327 kts 263°
2026-05-06 20:53 38.74098 -77.46913 16323 ft 325 kts 262°
2026-05-06 20:54 38.73695 -77.49769 16842 ft 327 kts 262°
2026-05-06 20:54 38.73250 -77.52580 17385 ft 327 kts 260°
2026-05-06 20:54 38.72702 -77.55430 17919 ft 328 kts 258°
2026-05-06 20:54 38.72070 -77.58227 18331 ft 332 kts 256°
2026-05-06 20:55 38.71326 -77.61025 18830 ft 334 kts 254°
2026-05-06 20:55 38.70483 -77.63775 19257 ft 336 kts 251°
2026-05-06 20:55 38.69538 -77.66509 19850 ft 335 kts 249°
2026-05-06 20:55 38.68511 -77.69191 20318 ft 337 kts 247°
2026-05-06 20:56 38.67384 -77.71840 20671 ft 342 kts 245°
2026-05-06 20:56 38.66131 -77.74415 21159 ft 344 kts 241°
2026-05-06 20:56 38.64758 -77.76896 21554 ft 347 kts 239°
2026-05-06 20:56 38.63242 -77.79315 21928 ft 352 kts 235°
2026-05-06 20:57 38.61578 -77.81620 22351 ft 355 kts 232°
2026-05-06 20:57 38.59764 -77.83808 22749 ft 359 kts 228°
2026-05-06 20:57 38.57824 -77.85821 23155 ft 363 kts 224°
2026-05-06 20:57 38.55746 -77.87629 23476 ft 370 kts 220°
2026-05-06 20:58 38.53452 -77.89237 23798 ft 378 kts 215°
2026-05-06 20:58 38.51026 -77.90583 24245 ft 383 kts 210°
2026-05-06 20:58 38.48455 -77.91647 24431 ft 396 kts 204°
2026-05-06 20:58 38.45785 -77.92569 24778 ft 390 kts 211°
2026-05-06 20:59 38.43485 -77.94173 25134 ft 371 kts 226°
2026-05-06 20:59 38.41718 -77.96477 25449 ft 362 kts 238°
2026-05-06 20:59 38.40241 -77.99049 25692 ft 362 kts 240°
2026-05-06 20:59 38.38784 -78.01673 25988 ft 364 kts 240°
2026-05-06 21:00 38.37312 -78.04291 26265 ft 366 kts 239°
2026-05-06 21:00 38.35825 -78.06921 26461 ft 369 kts 240°
2026-05-06 21:00 38.34317 -78.09566 26650 ft 372 kts 239°
2026-05-06 21:00 38.32792 -78.12220 26967 ft 372 kts 239°
2026-05-06 21:01 38.31271 -78.14873 27198 ft 374 kts 239°
2026-05-06 21:01 38.29721 -78.17567 27467 ft 375 kts 239°
2026-05-06 21:01 38.28206 -78.20209 27731 ft 375 kts 239°
2026-05-06 21:01 38.26670 -78.22925 27918 ft 377 kts 239°
2026-05-06 21:02 38.25127 -78.25645 28163 ft 378 kts 239°
2026-05-06 21:02 38.23598 -78.28337 28474 ft 377 kts 240°
2026-05-06 21:02 38.22075 -78.31047 28623 ft 380 kts 240°
2026-05-06 21:02 38.20528 -78.33782 28853 ft 381 kts 239°
2026-05-06 21:03 38.18991 -78.36489 29059 ft 382 kts 239°
2026-05-06 21:03 38.17436 -78.39237 29262 ft 383 kts 239°
2026-05-06 21:03 38.15889 -78.42011 29496 ft 383 kts 240°
2026-05-06 21:03 38.14360 -78.44752 29645 ft 386 kts 239°
2026-05-06 21:04 38.12794 -78.47516 29945 ft 385 kts 239°
2026-05-06 21:04 38.11217 -78.50249 30176 ft 385 kts 239°
2026-05-06 21:04 38.09605 -78.52988 30383 ft 386 kts 238°
2026-05-06 21:04 38.07993 -78.55675 30577 ft 388 kts 239°
2026-05-06 21:05 38.06345 -78.58405 30752 ft 389 kts 238°
2026-05-06 21:05 38.04706 -78.61122 31090 ft 386 kts 239°
2026-05-06 21:05 38.03086 -78.63842 31529 ft 381 kts 240°
2026-05-06 21:05 38.01516 -78.66499 31939 ft 377 kts 239°
2026-05-06 21:06 37.99944 -78.69142 32206 ft 376 kts 239°
2026-05-06 21:06 37.98354 -78.71820 32528 ft 375 kts 239°
2026-05-06 21:06 37.96806 -78.74413 32812 ft 374 kts 239°
2026-05-06 21:06 37.95228 -78.77032 33094 ft 372 kts 239°
2026-05-06 21:07 37.93660 -78.79630 33394 ft 370 kts 240°
2026-05-06 21:07 37.92119 -78.82203 33773 ft 367 kts 240°
2026-05-06 21:07 37.90579 -78.84758 33872 ft 368 kts 240°
2026-05-06 21:08 37.87441 -78.89899 33874 ft 371 kts 240°
2026-05-06 21:08 37.84301 -78.95118 33882 ft 374 kts 240°
2026-05-06 21:09 37.81108 -79.00337 33883 ft 377 kts 240°
2026-05-06 21:09 37.77895 -79.05640 33887 ft 380 kts 240°
2026-05-06 21:10 37.74666 -79.10930 33898 ft 382 kts 240°
2026-05-06 21:10 37.71422 -79.16291 33909 ft 383 kts 241°
2026-05-06 21:11 37.68162 -79.21620 33912 ft 386 kts 240°
2026-05-06 21:11 37.64934 -79.27011 33913 ft 386 kts 242°
2026-05-06 21:12 37.61732 -79.32472 33917 ft 388 kts 241°
2026-05-06 21:12 37.58540 -79.37910 33914 ft 388 kts 240°
2026-05-06 21:13 37.55280 -79.43370 33922 ft 389 kts 240°
2026-05-06 21:13 37.52035 -79.48818 33934 ft 389 kts 240°
2026-05-06 21:14 37.48786 -79.54256 33931 ft 390 kts 241°
2026-05-06 21:14 37.45521 -79.59718 33920 ft 391 kts 240°
2026-05-06 21:15 37.42222 -79.65179 33920 ft 389 kts 239°
2026-05-06 21:15 37.38955 -79.70660 33921 ft 391 kts 239°
2026-05-06 21:16 37.35668 -79.76092 33915 ft 392 kts 239°
2026-05-06 21:16 37.32381 -79.81539 33913 ft 391 kts 240°
2026-05-06 21:17 37.29115 -79.87000 33922 ft 393 kts 240°
2026-05-06 21:17 37.25816 -79.92481 33921 ft 393 kts 240°
2026-05-06 21:18 37.22555 -79.97913 33915 ft 389 kts 240°
2026-05-06 21:18 37.19288 -80.03295 33924 ft 390 kts 239°
2026-05-06 21:19 37.15959 -80.08711 33925 ft 392 kts 240°
2026-05-06 21:19 37.12663 -80.14127 33931 ft 390 kts 240°
2026-05-06 21:20 37.09403 -80.19521 33944 ft 389 kts 241°
2026-05-06 21:20 37.06128 -80.24912 33946 ft 390 kts 241°
2026-05-06 21:21 37.02803 -80.30338 33949 ft 391 kts 240°
2026-05-06 21:21 36.99233 -80.35513 33944 ft 394 kts 235°
2026-05-06 21:22 36.95255 -80.40264 33943 ft 399 kts 233°
2026-05-06 21:22 36.91210 -80.45040 33950 ft 397 kts 233°
2026-05-06 21:23 36.87286 -80.49882 33947 ft 397 kts 234°
2026-05-06 21:23 36.83398 -80.54773 33955 ft 395 kts 235°
2026-05-06 21:24 36.79560 -80.59702 33955 ft 396 kts 235°
2026-05-06 21:24 36.75708 -80.64584 33968 ft 396 kts 235°
2026-05-06 21:25 36.71825 -80.69459 33972 ft 397 kts 235°
2026-05-06 21:25 36.67943 -80.74342 33957 ft 398 kts 234°
2026-05-06 21:26 36.64051 -80.79211 33962 ft 396 kts 234°
2026-05-06 21:26 36.60183 -80.84080 33957 ft 397 kts 234°
2026-05-06 21:27 36.56288 -80.88966 33958 ft 397 kts 234°
2026-05-06 21:27 36.52429 -80.93850 33957 ft 396 kts 235°
2026-05-06 21:28 36.48563 -80.98710 33960 ft 397 kts 234°
2026-05-06 21:28 36.44681 -81.03605 33967 ft 394 kts 235°
2026-05-06 21:29 36.40845 -81.08450 33962 ft 394 kts 235°
2026-05-06 21:29 36.36980 -81.13284 33971 ft 395 kts 234°
2026-05-06 21:30 36.33120 -81.18123 33973 ft 395 kts 234°
2026-05-06 21:30 36.29244 -81.22974 33975 ft 395 kts 235°
2026-05-06 21:31 36.25394 -81.27798 33966 ft 396 kts 235°
2026-05-06 21:31 36.21493 -81.32675 33976 ft 397 kts 234°
2026-05-06 21:32 36.17584 -81.37506 33973 ft 398 kts 235°
2026-05-06 21:32 36.11771 -81.44701 33981 ft 391 kts 235°
2026-05-06 21:33 36.07935 -81.49476 33976 ft 392 kts 235°
2026-05-06 21:33 36.04083 -81.54249 33978 ft 393 kts 234°
2026-05-06 21:34 36.00226 -81.59028 33980 ft 393 kts 234°
2026-05-06 21:34 35.96349 -81.63823 33987 ft 393 kts 234°
2026-05-06 21:35 35.92527 -81.68648 33984 ft 392 kts 237°
2026-05-06 21:35 35.88828 -81.73579 33984 ft 393 kts 235°
2026-05-06 21:36 35.84971 -81.78457 33978 ft 396 kts 234°
2026-05-06 21:36 35.81091 -81.83289 33981 ft 398 kts 234°
2026-05-06 21:37 35.77167 -81.88143 33991 ft 399 kts 233°
2026-05-06 21:37 35.73165 -81.92903 33975 ft 400 kts 233°
2026-05-06 21:38 35.69180 -81.97667 33977 ft 399 kts 233°
2026-05-06 21:38 35.65205 -82.02461 33980 ft 400 kts 233°
2026-05-06 21:39 35.61237 -82.07225 33997 ft 401 kts 233°
2026-05-06 21:39 35.57223 -82.12006 33996 ft 400 kts 233°
2026-05-06 21:40 35.53212 -82.16780 33999 ft 401 kts 232°
2026-05-06 21:40 35.49208 -82.21496 33999 ft 401 kts 233°
2026-05-06 21:41 35.45195 -82.26273 34001 ft 402 kts 232°
2026-05-06 21:41 35.41171 -82.31036 34005 ft 400 kts 232°
2026-05-06 21:42 35.37136 -82.35764 34010 ft 401 kts 233°
2026-05-06 21:42 35.33124 -82.40523 34001 ft 402 kts 232°
2026-05-06 21:43 35.29145 -82.45317 34020 ft 402 kts 233°
2026-05-06 21:43 35.25196 -82.50137 34018 ft 403 kts 232°
2026-05-06 21:44 35.21246 -82.55003 34016 ft 403 kts 232°
2026-05-06 21:44 35.17301 -82.59880 34007 ft 402 kts 234°
2026-05-06 21:45 35.13354 -82.64793 33996 ft 404 kts 232°
2026-05-06 21:45 35.09325 -82.69601 33996 ft 407 kts 231°
2026-05-06 21:46 35.05217 -82.74399 33993 ft 408 kts 230°
2026-05-06 21:46 35.01152 -82.79197 33999 ft 409 kts 230°
2026-05-06 21:47 34.97054 -82.84071 34006 ft 410 kts 230°
2026-05-06 21:47 34.92950 -82.88902 34002 ft 411 kts 230°
2026-05-06 21:48 34.88811 -82.93687 33852 ft 416 kts 230°
2026-05-06 21:48 34.86690 -82.96128 33512 ft 417 kts 230°
2026-05-06 21:48 34.85161 -82.97894 33266 ft 418 kts 230°
2026-05-06 21:49 34.83041 -83.00308 32992 ft 417 kts 229°
2026-05-06 21:49 34.80945 -83.02670 32728 ft 407 kts 230°
2026-05-06 21:49 34.78891 -83.05027 32465 ft 397 kts 230°
2026-05-06 21:49 34.76903 -83.07343 32198 ft 393 kts 230°
2026-05-06 21:50 34.74925 -83.09644 31940 ft 395 kts 231°
2026-05-06 21:50 34.72925 -83.11964 31683 ft 400 kts 231°
2026-05-06 21:50 34.70905 -83.14294 31431 ft 403 kts 230°
2026-05-06 21:50 34.68883 -83.16626 31173 ft 404 kts 231°
2026-05-06 21:51 34.66806 -83.19014 30808 ft 405 kts 230°
2026-05-06 21:51 34.64794 -83.21333 30078 ft 406 kts 231°
2026-05-06 21:51 34.62748 -83.23701 29218 ft 408 kts 231°
2026-05-06 21:51 34.60685 -83.26075 28415 ft 408 kts 231°
2026-05-06 21:52 34.58659 -83.28406 27862 ft 402 kts 231°
2026-05-06 21:52 34.56646 -83.30733 27279 ft 398 kts 231°
2026-05-06 21:52 34.54654 -83.33032 26678 ft 393 kts 231°
2026-05-06 21:52 34.52676 -83.35319 26070 ft 390 kts 231°
2026-05-06 21:53 34.50713 -83.37571 25469 ft 385 kts 231°
2026-05-06 21:53 34.48809 -83.39765 24873 ft 382 kts 231°
2026-05-06 21:53 34.46901 -83.41969 24274 ft 378 kts 230°
2026-05-06 21:53 34.45001 -83.44154 23679 ft 374 kts 231°
2026-05-06 21:54 34.43120 -83.46331 23081 ft 371 kts 232°
2026-05-06 21:54 34.41295 -83.48452 22507 ft 367 kts 231°
2026-05-06 21:54 34.39448 -83.50569 21924 ft 364 kts 231°
2026-05-06 21:54 34.37615 -83.52671 21335 ft 360 kts 231°
2026-05-06 21:55 34.35818 -83.54744 20756 ft 357 kts 231°
2026-05-06 21:55 34.34039 -83.56805 20176 ft 353 kts 231°
2026-05-06 21:55 34.32273 -83.58860 19602 ft 349 kts 231°
2026-05-06 21:55 34.30542 -83.60856 19031 ft 346 kts 231°
2026-05-06 21:56 34.28802 -83.62854 18463 ft 343 kts 230°
2026-05-06 21:56 34.27068 -83.64831 17894 ft 339 kts 230°
2026-05-06 21:56 34.25348 -83.66745 17340 ft 336 kts 229°
2026-05-06 21:56 34.23613 -83.68642 16783 ft 333 kts 227°
2026-05-06 21:57 34.21900 -83.70499 16228 ft 331 kts 227°
2026-05-06 21:57 34.20198 -83.72302 15686 ft 329 kts 226°
2026-05-06 21:57 34.18464 -83.74094 15137 ft 327 kts 225°
2026-05-06 21:57 34.16741 -83.75844 14586 ft 325 kts 225°
2026-05-06 21:58 34.15011 -83.77615 14038 ft 323 kts 225°
2026-05-06 21:58 34.13319 -83.79375 13492 ft 321 kts 225°
2026-05-06 21:58 34.11650 -83.81133 12945 ft 319 kts 225°
2026-05-06 21:58 34.09987 -83.82896 12397 ft 318 kts 225°
2026-05-06 21:59 34.08326 -83.84655 11841 ft 316 kts 226°
2026-05-06 21:59 34.06701 -83.86407 11295 ft 315 kts 226°
2026-05-06 21:59 34.05091 -83.88179 10852 ft 311 kts 226°
2026-05-06 21:59 34.03513 -83.89924 10594 ft 301 kts 226°
2026-05-06 22:00 34.01996 -83.91578 10470 ft 287 kts 226°
2026-05-06 22:00 34.00542 -83.93150 10353 ft 275 kts 226°
2026-05-06 22:00 33.99141 -83.94654 10230 ft 263 kts 226°
2026-05-06 22:00 33.97742 -83.96024 10020 ft 259 kts 218°
2026-05-06 22:01 33.96069 -83.96854 9688 ft 268 kts 195°
2026-05-06 22:01 33.94169 -83.96897 9342 ft 274 kts 182°
2026-05-06 22:01 33.92286 -83.96673 9037 ft 271 kts 181°
2026-05-06 22:01 33.90406 -83.96506 9006 ft 269 kts 184°
2026-05-06 22:02 33.88521 -83.96437 8996 ft 271 kts 186°
2026-05-06 22:02 33.86638 -83.96390 8998 ft 272 kts 185°
2026-05-06 22:02 33.84755 -83.96329 9000 ft 272 kts 185°
2026-05-06 22:02 33.82871 -83.96253 8996 ft 272 kts 184°
2026-05-06 22:03 33.80963 -83.96170 8986 ft 273 kts 185°
2026-05-06 22:03 33.79059 -83.96085 8737 ft 275 kts 184°
2026-05-06 22:03 33.77170 -83.96006 8584 ft 265 kts 185°
2026-05-06 22:03 33.75361 -83.96008 8444 ft 252 kts 192°
2026-05-06 22:04 33.73707 -83.96504 8177 ft 240 kts 208°
2026-05-06 22:04 33.72217 -83.97361 7878 ft 237 kts 211°
2026-05-06 22:04 33.70752 -83.98220 7593 ft 235 kts 208°
2026-05-06 22:04 33.69207 -83.99024 7307 ft 249 kts 206°
2026-05-06 22:05 33.67591 -83.99815 6957 ft 255 kts 208°
2026-05-06 22:05 33.66096 -84.00929 6615 ft 248 kts 227°
2026-05-06 22:05 33.65209 -84.02642 6332 ft 243 kts 254°
2026-05-06 22:05 33.65012 -84.04605 6037 ft 239 kts 265°
2026-05-06 22:06 33.64924 -84.06581 5741 ft 228 kts 265°
2026-05-06 22:06 33.64903 -84.08392 5590 ft 212 kts 267°
2026-05-06 22:06 33.64905 -84.10114 5476 ft 196 kts 266°
2026-05-06 22:06 33.64897 -84.11680 5381 ft 181 kts 266°
2026-05-06 22:07 33.64908 -84.13130 5284 ft 167 kts 266°
2026-05-06 22:07 33.64912 -84.14446 5205 ft 151 kts 266°
2026-05-06 22:07 33.64910 -84.15720 4985 ft 152 kts 266°
2026-05-06 22:07 33.64918 -84.16969 4812 ft 151 kts 266°
2026-05-06 22:08 33.64920 -84.18243 4600 ft 153 kts 266°
2026-05-06 22:08 33.64922 -84.19506 4391 ft 150 kts 266°
2026-05-06 22:08 33.64927 -84.20748 4193 ft 150 kts 266°
2026-05-06 22:08 33.64928 -84.21990 3999 ft 151 kts 266°
2026-05-06 22:09 33.64932 -84.23262 3814 ft 155 kts 266°
2026-05-06 22:09 33.64932 -84.24547 3569 ft 154 kts 266°
2026-05-06 22:09 33.64939 -84.25809 3382 ft 151 kts 266°
2026-05-06 22:09 33.64935 -84.27049 3213 ft 146 kts 266°
2026-05-06 22:10 33.64941 -84.28291 2986 ft 148 kts 266°
2026-05-06 22:10 33.64943 -84.29521 2796 ft 150 kts 265°
2026-05-06 22:10 33.64945 -84.30785 2595 ft 152 kts 265°
2026-05-06 22:10 33.64949 -84.32034 2394 ft 149 kts 264°
2026-05-06 22:11 33.64944 -84.33275 2214 ft 149 kts 264°
2026-05-06 22:11 33.64951 -84.34547 2007 ft 153 kts 265°
2026-05-06 22:11 33.64951 -84.35829 1817 ft 154 kts 264°
2026-05-06 22:11 33.64948 -84.37081 1615 ft 151 kts 263°
2026-05-06 22:12 33.64953 -84.38348 1435 ft 151 kts 265°
2026-05-06 22:12 33.64978 -84.39619 1280 ft 152 kts 265°
2026-05-06 22:12 33.64955 -84.40860 1061 ft 151 kts 265°
2026-05-06 22:12 33.64968 -84.42110 985 ft 143 kts 264°
2026-05-06 22:13 33.64956 -84.43137 1000 ft 94 kts 269°
2026-05-06 22:13 33.64955 -84.43662 1010 ft 30 kts 261°
2026-05-06 22:13 33.64878 -84.43750 1013 ft 0 kts 216°
2026-05-06 22:14 33.64839 -84.43796 1015 ft 12 kts 229°
2026-05-06 22:14 33.64774 -84.43825 1015 ft 9 kts 178°
2026-05-06 22:15 33.64703 -84.43821 1015 ft 13 kts 178°
2026-05-06 22:15 33.64587 -84.43821 1015 ft 20 kts 182°
2026-05-06 22:15 33.64461 -84.43773 1014 ft 19 kts 100°
2026-05-06 22:15 33.64460 -84.43621 1011 ft 17 kts 89°
2026-05-06 22:16 33.64442 -84.43488 1009 ft 15 kts 135°
2026-05-06 22:16 33.64354 -84.43457 1009 ft 12 kts 179°
2026-05-06 22:16 33.64263 -84.43457 1009 ft 13 kts 181°
2026-05-06 22:16 33.64175 -84.43458 1009 ft 12 kts 181°
2026-05-06 22:17 33.64094 -84.43458 1009 ft 11 kts 181°
2026-05-06 22:17 33.64018 -84.43460 1009 ft 10 kts 181°
2026-05-06 22:17 33.63960 -84.43482 1009 ft 7 kts 238°
2026-05-06 22:17 33.63956 -84.43516 1009 ft 0 kts 272°
2026-05-06 22:18 33.63956 -84.43529 1010 ft 0 kts 272°
2026-05-06 22:18 33.63957 -84.43538 1010 ft 0 kts 272°